SES-19

Last updated on Mon Oct 20 2025 00:02:51 GMT+0000 (Coordinated Universal Time)

1 55971U 23038B 25292.33881300 .00000086 00000+0 00000+0 0 9991 2 55971 0.0309 281.3712 0001518 290.7604 163.0252 1.00270131 9652
UTC large
Height (km)
Speed (km/s)
/
Latitude / Longitude
Inclination (degrees)
Orbital Period (minutes)
Azimuth
Elevation
Range (km)
Doppler Factor

Next 0 passes for location: London (51.5072 / 0.1276)

Sorry there are no passes over London.